Weather in Nizhnyaya Poltavka

Russia / Amur Oblast     49°42′47″N   128°14′13″E
temp.,
°C
wind,
m/s
gust,
m/s
humid.,
%
clouds,
%
prec.,
mm/h
press.,
hPa
HPBL,
m
23 april, fri
fri2300:00+12nnw5965100 0.0 1020273
03:00+10n5785100 2.8 1022321
06:00+6n71157100 0.6 1025507
09:00+7n793752 0.6 1028885
12:00+10nnw673137 0.0 10271193
15:00+8nnw682599 0.0 10281315
18:00+10n6823100 0.0 10281542
21:00+7n5112441 0.0 1029442
24 april, sat
sat2400:00+4n61232100 0.0 1031496
03:00+2nnw510400 0.0 1031375
06:000nw39500 0.0 1032223
09:00+5nnw68320 0.0 10311125
12:00+9nw69230 0.0 10282041
15:00+12nw8112036 0.0 10242878
18:00+12nnw6122493 0.0 10222998
21:00+8nnw6123019 0.0 1023443
25 april, sun
sun2500:00+7nnw714363 0.0 1023694
03:00+4nnw713495 0.0 1024791
06:00+2n511550 0.0 10261029
09:00+5n57250 0.0 10271300
12:00+8nnw56170 0.0 10251665
15:00+11nw45160 0.0 10221874
18:00+11nw242255 0.0 10201720
21:00+7s34315 0.0 102050
26 april, mon
mon2600:00+5s38387 0.0 1019132
03:00+4ssw355245 0.0 101776
06:00+4s395098 0.0 1015177
09:00+11ssw6103185 0.0 1013629
12:00+17ssw8102199 0.0 10091598
15:00+19ssw91219100 0.0 10052081
18:00+17s71324100 0.0 1003792
21:00+16s71425100 0.0 1001547
27 april, tue
tue2700:00+15s61329100 0.0 1000436
03:00+14s41045100 0.0 998272
06:00+13ssw61455100 0.0 998569
09:00+15ssw81142100 0.1 9971066
12:00+13ssw61071100 0.9 9991113
15:00+17ssw81041100 1.3 9962295
18:00+15ssw7114688 0.1 9962081
21:00+10sse5117313 0.8 996324